Home   Weather   Santiago de Cuba   Past weeks

Flag for Cuba Past Weather in Santiago de Cuba, Cuba — Yesterday and Last 2 Weeks

Now
72 °F

Passing clouds.


Feels Like: 75 °F
Forecast: 68 / 83 °F
Wind: 12 mph from North

Location: Santiago De Cuba - Oriente

Current Time: Jan 24, 2017 at 8:36:04 am

Latest Report: Jan 24, 2017 at 7:50 am


Visibility: 6 mi

Pressure: 29.92 "Hg

Humidity: 65%

Dew Point: 59 °F

Location of Santiago de CubaLocation

Past Weather in Santiago de Cuba — Graph

°F

Santiago de Cuba Temperature Yesterday

Maximum temperature yesterday: 82 °F (at 11:52 am)
Minimum temperature yesterday: 77 °F (at 12:50 am)
Average temperature yesterday: 79 °F

High & Low Weather Summary for the Past Weeks

 TemperatureHumidityPressure
High90 °F (Jan 14, 1:52 pm)88% (Jan 21, 5:52 am)30.21 "Hg (Jan 21, 5:52 am)
Low63 °F (Jan 20, 6:50 am)26% (Jan 14, 1:52 pm)29.80 "Hg (Jan 23, 2:50 pm)
Average74 °F63%30.06 "Hg
* Reported Jan 9 6:51 am — Jan 24 6:51 am, Santiago de Cuba, Weather by CustomWeather, © 2017

Note: Actual official high and low records may vary slightly from our data, if they occured in-between our weather recording intervals... More about our weather records

Advertising

Santiago de Cuba Weather History for the Previous 24 Hours

Scroll right to see more
 ConditionsComfort  
Time TempWeatherWind HumidityBarometerVisibility
6:51 am
Tue, Jan 24
70 °FScattered clouds.12 mph69%29.92 "Hg6 mi
5:51 am70 °FPassing clouds.10 mph78%29.89 "Hg6 mi
4:51 am70 °FPassing clouds.10 mph83%29.86 "Hg6 mi
3:50 am68 °FPassing clouds.8 mph88%29.86 "Hg6 mi
2:50 am68 °FLight rain. Passing clouds.7 mph88%N/A5 mi
1:52 am68 °FLight rain. Partly cloudy.9 mph88%N/A4 mi
12:51 am70 °FLight rain. Partly cloudy.12 mph88%N/A4 mi
12:13 am72 °FLight rain. Passing clouds.8 mph88%N/A5 mi
12:02 am73 °FHeavy rain. Passing clouds.15 mph83%N/A1 mi
10:51 pm
Mon, Jan 23
79 °FPassing clouds.16 mph70%29.86 "Hg6 mi
9:51 pm79 °FPassing clouds.15 mph70%29.86 "Hg6 mi
8:50 pm79 °FPassing clouds.15 mph65%29.86 "Hg6 mi
7:51 pm79 °FPassing clouds.14 mph70%29.86 "Hg6 mi
6:51 pm79 °FPassing clouds.16 mph65%29.83 "Hg6 mi
5:52 pm79 °FPassing clouds.15 mph65%29.83 "Hg6 mi
4:52 pm79 °FScattered clouds.12 mph61%29.83 "HgN/A
3:50 pm81 °FScattered clouds.15 mph58%29.83 "HgN/A
2:50 pm81 °FScattered clouds.17 mph58%29.80 "HgN/A
1:53 pm81 °FScattered clouds.18 mph54%29.83 "HgN/A
12:52 pm82 °FScattered clouds.13 mph51%29.86 "HgN/A
12:29 pm82 °FScattered clouds.16 mph51%29.86 "HgN/A
11:52 am82 °FScattered clouds.15 mph55%29.89 "HgN/A
10:51 am81 °FScattered clouds.16 mph58%29.92 "HgN/A
8:50 am79 °FScattered clouds.20 mph65%29.92 "Hg6 mi
Weather by CustomWeather, © 2017

See weather overviewHow to use our weather pages